User: anonymous   Login
Location: Poughquag
(41.6090°N, 73.6820°W)
Time: 21:42:16
(UTC-04:00)
Language:

XW-2C - Orbit

View from above orbital plane
View from above orbital plane
View from above satellite
View from above satellite

Ground track
Ground track

The orbit data is extracted from the following two-line orbital elements,

1 40906U 15049H   24167.56489894  .00029143  00000-0  67106-3 0  9993
2 40906  97.4781 184.3312 0005628 313.0694  47.0081 15.42562428484225
Epoch (UTC): 15 June 2024 13:33:27
Eccentricity: 0.0005628
inclination: 97.4781°
perigee height: 435 km
apogee height: 442 km
right ascension of ascending node: 184.3312°
argument of perigee: 313.0694°
revolutions per day: 15.42562428
mean anomaly at epoch: 47.0081°
orbit number at epoch: 48422

The dashed part of the orbit path shows where the satellite is in the earth's shadow,  

DLR